Tracking 30692 objects as of 16-Jun-2025
HD Live streaming from Space Station
objects crossing your sky now

STARLINK-2368

Track STARLINK-2368 now!
10-day predictions
STARLINK-2368 is classified as:


NORAD ID: 47908
Int'l Code: 2021-021BA
Perigee: 553.2 km
Apogee: 555.6 km
Inclination: 53.1 °
Period: 95.6 minutes
Semi major axis: 6925 km
RCS: Unknown
Launch date: March 14, 2021
Source: United States (US)
Launch site: AIR FORCE EASTERN TEST RANGE (AFETR)
Your satellite tracking list
Your tracking list is empty




NASA's NSSDC Master Catalog

Two Line Element Set (TLE):
1 47908U 21021BA  25167.05721259  .00008638  00000-0  59850-3 0  9991
2 47908  53.0547  38.5780 0001743  81.9138 278.2049 15.06375082235852
Source of the keplerian elements: AFSPC